Miscellaneous Local Product
Issued by NWS Hastings, NE

Home | Current Version | Previous Version | Graphics & Text | Print | Product List | Glossary On
Versions: 1 2 3 4 5 6 7 8 9 10 11 12 13 14 15 16 17 18 19 20 21 22 23 24 25 26 27 28 29 30 31 32 33 34 35 36 37 38 39 40 41 42 43 44 45 46 47 48 49 50
576
AXUS43 KGID 281702
MISGRI

GID CWA HOURLY WEATHER ROUNDUP
NATIONAL WEATHER SERVICE HASTINGS NE
1200 PM CDT THU JUL 28 2016

NOTE: "FAIR" INDICATES FEW OR NO CLOUDS BELOW 12,000 FEET WITH NO
SIGNIFICANT WEATHER AND/OR OBSTRUCTIONS TO VISIBILITY.

...SOUTH CENTRAL NEBRASKA...

CITY           SKY/WX    TMP DP  RH WIND       PRES   REMARKS
GRAND ISLAND   MOSUNNY   79  65  62 N9        30.07F
HASTINGS       SUNNY     79  67  66 N7        30.08F
ORD            CLOUDY    76  64  66 E6        30.08F
YORK           MOSUNNY   79  66  65 N8        30.06F
AURORA         MOSUNNY   79  67  67 NE7       30.07F
LEXINGTON      LGT RAIN  69  65  86 N10       30.09F
HOLDREGE       CLOUDY    75  66  74 N8        30.08F
HEBRON         SUNNY     82  67  60 N8        30.04F

...NEBRASKA PANHANDLE...

CITY           SKY/WX    TMP DP  RH WIND       PRES   REMARKS
CHADRON        PTSUNNY   64  59  83 SE8       30.17F
ALLIANCE       LGT RAIN  61  58  90 NW8       30.23S
SCOTTSBLUFF    LGT RAIN  60  32  34 W6        30.25S
SIDNEY         CLOUDY    65  60  84 N13       30.28R THUNDER

...WESTERN AND NORTH CENTRAL NEBRASKA...

CITY           SKY/WX    TMP DP  RH WIND       PRES   REMARKS
VALENTINE      PTSUNNY   71  63  75 SW3       30.14R
AINSWORTH      CLOUDY    69  65  86 CALM      30.13S
ONEILL         CLOUDY    74  62  66 CALM      30.11S
BROKEN BOW     CLOUDY    69  66  90 S13G24    30.06F
IMPERIAL       CLOUDY    67  62  84 E12       30.13F
NORTH PLATTE   CLOUDY    69  61  75 SE9       30.05F
MCCOOK         CLOUDY    80  64  58 E9        30.11R

...EASTERN NEBRASKA...

CITY           SKY/WX    TMP DP  RH WIND       PRES   REMARKS
NORFOLK        SUNNY     79  61  53 N8        30.07F
SO SIOUX CITY  SUNNY     79  61  53 NW13G18   30.05R
TEKAMAH        MOSUNNY   81  64  56 NW10      30.03S
COLUMBUS       MOSUNNY   79  63  57 NW8       30.06F
ALBION         SUNNY     76  65  67 N6        30.08F
OMAHA EPPLEY   MOSUNNY   81  67  62 NW7       30.02S
MILLARD        SUNNY     80  65  59 NW8       30.02F
LINCOLN        SUNNY     83  67  58 N7        30.04F
NEBRASKA CITY  MOSUNNY   79  69  70 N6        30.03R
BEATRICE       MOSUNNY   82  69  63 N7        30.03S
FALLS CITY     MOSUNNY   82  71  69 N7        30.00R

...NORTHERN KANSAS...

CITY           SKY/WX    TMP DP  RH WIND       PRES   REMARKS
GOODLAND       CLOUDY    66  63  90 NE7       30.12F
HILL CITY      SUNNY     85  65  51 VRB6      30.07R
NORTON         SUNNY     81  59  47 E7        30.08R
SMITH CENTER   SUNNY     84  64  51 NE8       30.05S
BELOIT         SUNNY     84  66  54 NE10      30.01S
HAYS           SUNNY     84  64  51 E10       30.03R
RUSSELL        SUNNY     85  68  56 E14       30.00F
CONCORDIA      SUNNY     85  67  54 VRB5      30.02F
SALINA         SUNNY     89  68  49 NE13      29.99F HX  93
TOPEKA         MOSUNNY   88  69  53 NE9       29.97F HX  92



USA.gov is the U.S. government's official web portal to all federal, state and local government web resources and services.